Location: Newark
(45.8378°N, 5.5389°E)
Time: 16:09:18
(UTC+00:00)

N. Korean satellite - Visible Passes

Search period start: 20 October 2019 00:00
Search period end: 30 October 2019 00:00
Orbit: 455 x 508 km, 97.2° (Epoch: 20 October)

Date Brightness Start Highest point End Pass type
(mag) Time Alt. Az. Time Alt. Az. Time Alt. Az.
20 Oct 9.6 04:49:28 10° NE 04:52:17 21° E 04:55:08 10° SE visible
21 Oct 10.4 04:25:39 10° ENE 04:26:47 11° E 04:27:55 10° ESE visible
22 Oct 7.0 05:31:36 10° NNE 05:35:13 71° ESE 05:38:53 10° S visible
22 Oct 10.0 17:44:13 10° SW 17:46:16 15° W 17:48:21 10° NW visible
23 Oct 8.6 05:06:31 10° NNE 05:09:52 34° E 05:13:14 10° SSE visible
23 Oct 8.9 17:17:45 10° SSW 17:20:47 29° W 17:23:53 10° NNW visible
24 Oct 9.8 04:41:52 10° NE 04:44:25 18° E 04:46:58 10° SE visible
26 Oct 7.4 05:23:45 10° NNE 05:27:22 56° E 05:31:00 10° S visible
26 Oct 9.8 17:35:50 10° SW 17:38:19 18° W 17:40:51 10° NW visible
27 Oct 9.0 04:58:45 10° NE 05:01:58 28° E 05:05:11 10° SSE visible
27 Oct 8.3 17:09:38 10° SSW 17:12:51 36° W 17:16:08 10° NNW visible
28 Oct 10.1 04:34:18 10° NE 04:36:29 15° E 04:38:39 10° SE visible
29 Oct 6.6 05:41:07 10° NNE 05:44:49 86° W 05:48:31 10° SSW visible
29 Oct 10.2 17:54:35 10° WSW 17:55:53 12° W 17:57:12 10° WNW visible
